This demonstration page uses our WeatherBlox Daily Observations layout. Learn more.

36.17497, -115.13722

Hourly Observations for March 17, 2018

Temp ( °F °C ) Dew Point ( °F °C ) Humidity (%) Winds ( mph kmh ) Pressure ( in mb ) Visibility ( mi km ) Precip ( " mm )
12:53 am 00:53 Clear 53 11.7 32 0 45 45 WSW 14 22 29.83 1010 10 16.0934 0 0
1:53 am 01:53 Clear 53 11.7 32 0 45 45 W 18 30 29.82 1010 10 16.0934 0 0
2:53 am 02:53 Mostly Clear 52 11.1 33 0.6 49 49 WSW 14 22 29.82 1010 10 16.0934 0 0
3:53 am 03:53 Clear 51 10.6 32 0 48 48 WSW 21 33 29.8 1009 10 16.0934 0 0
4:53 am 04:53 Mostly Clear 53 11.7 28 -2.2 38 38 W 16 26 29.82 1010 10 16.0934 0 0
5:53 am 05:53 Clear 52 11.1 28 -2.2 40 40 W 20 31 29.84 1010 10 16.0934 0 0
6:53 am 06:53 Sunny 50 10 30 -1.1 46 46 SSW 14 22 29.87 1011 10 16.0934 0 0
7:53 am 07:53 Sunny 50 10 33 0.6 52 52 S 14 22 29.88 1012 10 16.0934 0 0
8:53 am 08:53 Sunny 52 11.1 30 -1.1 43 43 SSW 10 17 29.9 1012 10 16.0934 0 0
9:53 am 09:53 Sunny 56 13.3 25 -3.9 30 30 SSW 18 30 29.89 1012 10 16.0934 0 0
10:53 am 10:53 Sunny 57 13.9 23 -5 27 27 WSW 16 26 29.89 1012 10 16.0934 0 0
11:53 am 11:53 Sunny 58 14.4 24 -4.4 27 27 SW 13 20 29.88 1012 10 16.0934 0 0
12:53 pm 12:53 Mostly Sunny 61 16.1 21 -6.1 21 21 S 21 33 29.86 1011 10 16.0934 0 0
1:53 pm 13:53 Sunny 60 15.6 22 -5.6 23 23 S 25 41 29.84 1011 10 16.0934 0 0
2:53 pm 14:53 Sunny 60 15.6 21 -6.1 22 22 S 23 37 29.83 1010 10 16.0934 0 0
3:53 pm 15:53 Sunny 59 15 17 -8.3 19 19 SSW 20 31 29.83 1010 10 16.0934 0 0
4:53 pm 16:53 Sunny 59 15 10 -12.2 14 14 WSW 14 22 29.84 1010 10 16.0934 0 0
5:07 pm 17:07 Sunny 59 15 8 -13.3 13 13 SW 15 24 29.77 1008 10 16.0934 0 0
5:53 pm 17:53 Sunny 58 14.4 7 -13.9 13 13 SW 20 31 29.84 1011 10 16.0934 0 0
6:53 pm 18:53 Clear 57 13.9 9 -12.8 15 15 WSW 16 26 29.84 1010 10 16.0934 0 0
7:53 pm 19:53 Clear 56 13.3 6 -14.4 13 13 W 13 20 29.85 1011 10 16.0934 0 0
8:53 pm 20:53 Clear 55 12.8 7 -13.9 14 14 WSW 14 22 29.85 1011 10 16.0934 0 0
9:53 pm 21:53 Mostly Cloudy 55 12.8 11 -11.7 17 17 W 17 28 29.86 1011 10 16.0934 0 0
10:53 pm 22:53 Mostly Cloudy 54 12.2 23 -5 30 30 NW 20 31 29.88 1012 10 16.0934 0 0
11:53 pm 23:53 Cloudy 51 10.6 26 -3.3 38 38 NW 18 30 29.89 1012 10 16.0934 0 0

Powered by AerisWeather